Weather Roundup
Issued by NWS Springfield, MO

Home | Current Version | Previous Version | Text Only | Print | Product List | Glossary On
Versions: 1 2 3 4 5 6 7 8 9 10 11 12 13 14 15 16 17 18 19 20 21 22 23 24 25 26 27 28 29 30 31 32 33 34 35 36 37 38 39 40 41 42 43 44 45 46 47 48 49 50
000
NZUS99 KSGF 272107
HRRSGF

HOURLY WEATHER
NATIONAL WEATHER SERVICE SPRINGFIELD MO
300 PM CST SAT DEC 27 2014

......SGF CWA......

CITY           SKY/WX    TMP DP  RH WIND       PRES   REMARKS
SPRINGFIELD    LGT RAIN  33  30  88 NW12      30.16F WCI  24
JOPLIN         CLOUDY    31  28  89 NW9       30.23R WCI  23
WEST PLAINS    LGT RAIN  39  35  86 NW6       30.13R WCI  35
ROLLA          CLOUDY    34  32  92 NW10      30.13F WCI  26
OSAGE BEACH    CLOUDY    36  30  80 NW3       30.17S
BRANSON        CLOUDY    36  32  87 NW8       30.16S WCI  29

......SURROUNDING SGF CWA......

CITY           SKY/WX    TMP DP  RH WIND       PRES   REMARKS
CHANUTE        PTSUNNY   34  21  59 NW12      30.25R WCI  25
PARSONS        PTSUNNY   34  22  61 NW8       30.26R WCI  27
COFFEYVILLE    FLURRIES  34  22  61 NW13      30.26R WCI  25
EMPORIA        MOSUNNY   33  17  51 NW14G21   30.24R WCI  23
GROVE OK       LGT SNOW  32  32 100 NW6       30.25R VSB 1   WCI  26
ROGERS AR      LGT RAIN  32  31  96 NW8       30.20R WCI  25
SILOAM SPRINGS CLOUDY    30  25  80 N12       30.21S WCI  21
HARRISON AR    LGT RAIN  36  34  92 NW9       30.16R WCI  29
NEAR YELLVILLE CLOUDY    39  34  81 NW3       30.13F

......KANSAS AND MISSOURI......

CITY           SKY/WX    TMP DP  RH WIND       PRES   REMARKS
KANSAS CTY INT CLOUDY    31  21  66 NW9       30.22R WCI  23
DOWNTOWN KC    CLOUDY    32  21  64 NW10      30.24R WCI  24
COLUMBIA       LGT SNOW  34  31  88 NW10      30.17R FOG     WCI  26
SEDALIA        CLOUDY    35  28  75 NW10      30.19F WCI  27
ST JOSEPH      PTSUNNY   30  20  66 NW16      30.24S WCI  19
ST LOUIS       LGT RAIN  39  36  87 NW12      30.16R WCI  32
SPIRIT OF STL  LGT RAIN  38  35  89 NW9       30.15R WCI  31
KIRKSVILLE     CLOUDY    32  25  75 W12       30.18R WCI  23
WICHITA        MOSUNNY   36  17  46 N12       30.27S WCI  28
TOPEKA         SUNNY     36  19  50 W9G21     30.25R WCI  29
OLATHE         PTSUNNY   32  21  64 NW12      30.22R WCI  23

......TENNESSEE......

CITY           SKY/WX    TMP DP  RH WIND       PRES   REMARKS
MEMPHIS        LGT RAIN  55  53  93 E5        30.07S VSB 1
NASHVILLE      HVY RAIN  48  46  93 S8        30.14F FOG

......ARKANSAS.......

CITY           SKY/WX    TMP DP  RH WIND       PRES   REMARKS
FAYETTEVILLE   LGT RAIN  34  33  96 NW12      30.19R WCI  25
FT SMITH       LGT RAIN  39  35  86 NW10      30.21R WCI  32
LITTLE ROCK    CLOUDY    48  43  82 N12G20    30.12S

......OKLAHOMA.......

CITY           SKY/WX    TMP DP  RH WIND       PRES   REMARKS
TULSA          CLOUDY    32  29  88 NW7       30.27S WCI  26
PONCA CITY     SUNNY     37  17  44 NW10      30.28F WCI  30
MCALESTER      LGT RAIN  35  31  85 N14       30.22S WCI  26
OKLAHOMA CITY  PTSUNNY   36  21  54 N14       30.25F WCI  27

......IOWA............

CITY           SKY/WX    TMP DP  RH WIND       PRES   REMARKS
DES MOINES     PTSUNNY   29  20  69 NW18      30.19R WCI  16
QUAD CITIES    CLOUDY    33  25  72 W13G23    30.12R WCI  24

......ILLINOIS........

CITY           SKY/WX    TMP DP  RH WIND       PRES   REMARKS
QUINCY         CLOUDY    36  28  73 W14       30.15R WCI  27
CHICAGO        CLOUDY    36  29  75 W21G28    30.01R WCI  25



USA.gov is the U.S. government's official web portal to all federal, state and local government web resources and services.